{"data":{"norad_id":58791,"intl_designator":"2024-012E","name":"STARLINK-31162","alt_names":[],"object_type":"PAYLOAD","status":"ACTIVE","operator":null,"country":"US","launch_date":"2024-01-15","launch_site_code":"AFETR","launch_vehicle":null,"mission":null,"orbit_class":"UNKNOWN","rcs_meters":null,"size_class":null,"mass_kg":null,"dimensions":null,"purposes":["comms"],"wikipedia_slug":null,"has_3d_model":false,"image_url":null,"decayed_at":null,"tle_current":{"epoch":"2026-09-20T23:18:42.378912Z","epoch_age_seconds":111927,"freshness":"FRESH","line1":"1 58791U 24012E   26263.97132383  .00001201  00000+0  53159-4 0  9994","line2":"2 58791  43.0021 142.2490 0000992 277.6354  82.4385 15.27588952151108","mean_motion":15.27588952,"eccentricity":9.92e-5,"inclination_deg":43.0021,"raan_deg":142.249,"arg_perigee_deg":277.6354,"mean_anomaly_deg":82.4385,"bstar":5.3159e-5,"rev_number":15110,"period_min":94.266196290218,"perigee_km":482.34166366046,"apogee_km":483.70291766373,"semimajor_km":6861.1592906621,"source":"CELESTRAK","updated_at":"2026-09-21T09:00:33.979539Z"}}}